[[{"header":{"parameterUnit":"m.s-1","parameterCategory":1,"la1":30.2992,"la2":30.254,"lo1":-89.0895,"lo2":-89.0443,"dy":0.0025,"dx":0.0025,"nx":19,"ny":19,"refTime":"2026-04-30T09:00:00:Z","depth":0,"parameterNumber":2,"parameterNumberName":"U-component_of_WINDS"},"data":[0,0,0,-5.7246,-5.7249,-5.7373,-5.7373,-5.7574,-5.7576,0,0,0,0,0,0,0,0,0,0,0,-5.7236,-5.7238,-5.7246,-5.725,-5.7373,-5.7373,-5.7573,-5.7576,0,0,0,0,0,0,0,0,0,0,0,-5.7235,-5.7238,-5.7241,-5.725,-5.7373,-5.7373,-5.7573,-5.7464,0,0,0,0,0,0,0,0,0,0,-5.7337,-5.7354,-5.7237,-5.7241,-5.7251,-5.7373,-5.7373,-5.7458,-5.7471,-5.7536,0,-5.7602,0,-5.7592,-5.7592,-5.7593,0,0,0,-5.723,-5.7344,-5.7353,-5.7241,-5.7253,-5.7373,-5.7312,-5.7465,-5.7479,-5.7553,-5.7604,-5.7611,-5.7596,-5.7594,-5.7595,-5.8038,-5.8041,0,0,-5.7223,-5.7273,-5.7343,-5.7364,-5.7348,-5.7308,-5.7316,-5.7473,-5.7532,-5.7605,-5.7614,-5.7599,-5.7595,-5.7597,-5.8035,-5.8039,0,0,0,-5.7217,-5.7269,-5.7273,-5.7357,-5.7376,-5.7312,-5.7321,-5.7525,-5.7522,-5.7616,-5.7601,-5.7597,-5.76,-5.8032,-5.8036,-5.8234,0,0,0,-5.7212,-5.7265,-5.7271,-5.7303,-5.7374,-5.7452,-5.737,-5.7511,-5.7527,-5.76,-5.7597,-5.7602,-5.8028,-5.8034,-5.8221,-5.832,0,0,0,-5.7219,-5.7265,-5.7293,-5.7305,-5.736,-5.7448,-5.7454,-5.7513,-5.7519,-5.7593,-5.7603,-5.8026,-5.8033,-5.821,-5.8301,-5.8451,0,0,0,-5.7241,-5.7467,-5.7297,-5.7542,-5.736,-5.7569,-5.7452,-5.7606,-5.7693,-5.7598,-5.8029,-5.8036,-5.8207,-5.8289,-5.844,-5.8588,-5.8654,0,0,-5.7553,-5.7506,-5.7646,-5.7498,-5.7751,-5.7546,-5.7828,-5.786,-5.7821,-5.7968,-5.7978,-5.8226,-5.83,-5.8449,-5.9005,-5.9058,0,0,0,-5.7762,-5.7864,-5.792,-5.8005,-5.8035,-5.8069,-5.8052,-5.8064,-5.8186,-5.7907,-5.8318,-5.8361,-5.8446,-5.8515,-5.856,-5.863,-5.8069,-5.8069,-5.8068,-5.8277,-5.8215,-5.8443,-5.8396,-5.848,-5.846,-5.8522,-5.8534,-5.8447,-5.8545,-5.8589,-5.8934,-5.9016,-5.905,-5.9124,-5.8661,-5.8662,-5.8663,-5.8663,-5.8729,-5.8864,-5.8742,-5.8919,-5.8852,-5.9,-5.899,-5.8923,-5.9051,-5.8896,-5.8968,-5.8806,-5.911,-5.9171,-5.8677,-5.8675,-5.8673,-5.8672,-5.8671,-5.906,-5.9114,-5.9124,-5.924,-5.9336,-5.9279,-5.9408,-5.9341,-5.928,-5.9351,-5.939,-5.9387,-5.9376,-5.9374,-5.9375,-5.9376,-5.9377,-5.9378,-5.9379,-5.9401,-5.9405,-5.9522,-5.9572,-5.9617,-5.9669,-5.965,-5.9693,-5.9723,-5.9664,-5.9664,-5.9568,-5.9151,-5.9048,-5.9397,-5.9394,-5.9392,-5.939,-5.9389,-5.9885,-5.9764,-5.9945,-5.9991,-6.0043,-6.0143,-6.0056,-6.0148,-6.0174,-6.0239,-6.0127,-5.9828,-5.9775,-5.9739,-5.9654,-6.0139,-6.0139,-6.0139,-6.0139,-6.0165,-6.0131,-6.03,-6.0378,-6.0445,-6.0385,-6.059,-6.0578,-6.0546,-6.0557,-6.0477,-6.0357,-6.0323,-6.029,-6.0242,-6.0161,-6.0765,-6.0765,-6.0766,-6.046,-6.0429,-6.0618,-6.0584,-6.062,-6.0652,-6.0844,-6.0937,-6.0875,-6.079,-6.0565,-6.0539,-6.0345,-6.0285,-6.0197,-6.0124,-5.9974,0,0]},{"header":{"parameterUnit":"m.s-1","parameterCategory":1,"la1":30.2992,"la2":30.254,"lo1":-89.0895,"lo2":-89.0443,"dy":0.0025,"dx":0.0025,"nx":19,"ny":19,"refTime":"2026-04-30T09:00:00:Z","depth":0,"parameterNumber":3,"parameterNumberName":"V-component_of_WINDS"},"data":[0,0,0,-3.255,-3.255,-3.2523,-3.2523,-3.2504,-3.2504,0,0,0,0,0,0,0,0,0,0,0,-3.2571,-3.2571,-3.255,-3.255,-3.2523,-3.2522,-3.2504,-3.2504,0,0,0,0,0,0,0,0,0,0,0,-3.2571,-3.2571,-3.2571,-3.255,-3.2523,-3.2522,-3.2504,-3.2519,0,0,0,0,0,0,0,0,0,0,-3.2542,-3.2573,-3.2571,-3.2571,-3.255,-3.2523,-3.2522,-3.2519,-3.2518,-3.2524,0,-3.2535,0,-3.252,-3.2504,-3.2504,0,0,0,-3.2541,-3.2575,-3.2556,-3.2571,-3.255,-3.2523,-3.2532,-3.2518,-3.2517,-3.2523,-3.2535,-3.2534,-3.2519,-3.2504,-3.2504,-3.2576,-3.2577,0,0,-3.2542,-3.2572,-3.2557,-3.2556,-3.2563,-3.2533,-3.2532,-3.2517,-3.2532,-3.2535,-3.2533,-3.2519,-3.2504,-3.2504,-3.2575,-3.2576,0,0,0,-3.2553,-3.2574,-3.2555,-3.2557,-3.2551,-3.2533,-3.2531,-3.2532,-3.2524,-3.2533,-3.2519,-3.2504,-3.2504,-3.2574,-3.2575,-3.2642,0,0,0,-3.2553,-3.258,-3.2556,-3.2574,-3.2552,-3.2542,-3.2547,-3.2525,-3.2522,-3.2519,-3.2504,-3.2504,-3.2573,-3.2575,-3.2638,-3.2668,0,0,0,-3.2568,-3.2581,-3.2582,-3.2576,-3.2565,-3.2541,-3.2531,-3.2523,-3.2514,-3.2504,-3.2504,-3.2573,-3.2575,-3.2635,-3.2662,-3.2694,0,0,0,-3.2593,-3.2643,-3.2583,-3.2633,-3.2566,-3.2583,-3.2531,-3.2542,-3.2542,-3.2504,-3.2573,-3.2575,-3.2634,-3.2659,-3.269,-3.2725,-3.2742,0,0,-3.2672,-3.2653,-3.268,-3.2626,-3.2661,-3.2585,-3.2629,-3.26,-3.2572,-3.2576,-3.2577,-3.2639,-3.2662,-3.2693,-3.2832,-3.2846,0,0,0,-3.2715,-3.2734,-3.2737,-3.2738,-3.2717,-3.27,-3.2662,-3.265,-3.2652,-3.258,-3.2659,-3.2671,-3.2688,-3.2703,-3.2715,-3.2726,-3.2584,-3.2584,-3.2584,-3.2871,-3.2831,-3.2871,-3.2827,-3.2828,-3.2786,-3.2782,-3.2759,-3.272,-3.2739,-3.274,-3.2829,-3.2848,-3.2856,-3.2869,-3.2755,-3.2756,-3.2756,-3.2756,-3.2982,-3.3002,-3.2945,-3.2964,-3.2921,-3.2936,-3.2896,-3.2866,-3.2872,-3.2826,-3.2839,-3.2791,-3.2873,-3.2881,-3.2761,-3.276,-3.2759,-3.2759,-3.2758,-3.3078,-3.308,-3.3066,-3.306,-3.306,-3.3013,-3.302,-3.298,-3.2943,-3.2956,-3.295,-3.2949,-3.2941,-3.2956,-3.2956,-3.2957,-3.2957,-3.2957,-3.2957,-3.3184,-3.3164,-3.3176,-3.3156,-3.3149,-3.3135,-3.3091,-3.3083,-3.3063,-3.3033,-3.3033,-3.2989,-3.2889,-3.2864,-3.2962,-3.2961,-3.2961,-3.296,-3.296,-3.3309,-3.3274,-3.3292,-3.3285,-3.3256,-3.3256,-3.3205,-3.3191,-3.3178,-3.3182,-3.3135,-3.3068,-3.3046,-3.3036,-3.3015,-3.3145,-3.3145,-3.3145,-3.3145,-3.339,-3.3374,-3.3382,-3.3373,-3.3359,-3.3314,-3.3332,-3.3297,-3.3255,-3.3243,-3.3219,-3.3187,-3.3179,-3.3161,-3.3149,-3.3128,-3.3285,-3.3285,-3.3285,-3.3463,-3.3444,-3.3469,-3.3427,-3.34,-3.3377,-3.3392,-3.3382,-3.3327,-3.329,-3.3233,-3.3227,-3.3176,-3.3162,-3.3124,-3.3106,-3.3067,0,0]}]]